Overview Statistics Trail Chart Weather Telemetry Raw packets
 

This is the latest recevied weather packets stored in our database for station/object W7DG. If no packets are shown the sender has not sent any weather packets the latest 10 day(s).

<< 10 11 12 13 14 15 16 >>
Time Temp. Humidity Pressure Rain* Wind** Luminosity Snow
1788407289 12.78° C 85% 1009 hPa 0 mm - - -
1788406751 12.78° C 85% 1008.8 hPa 0 mm - - -
1788406389 12.78° C 86% 1008.8 hPa 0 mm - - -
1788405851 12.78° C 85% 1008.8 hPa 0 mm - - -
1788405489 12.78° C 84% 1008.8 hPa 0 mm - - -
1788404951 13.33° C 83% 1008.5 hPa 0 mm - - -
1788404589 13.33° C 83% 1008.5 hPa 0 mm - - -
1788404051 13.33° C 82% 1008.7 hPa 0 mm - - -
1788403689 13.33° C 83% 1008.3 hPa 0 mm - - -
1788403151 13.89° C 83% 1008.4 hPa 0 mm - - -
1788402789 13.89° C 83% 1008.3 hPa 0 mm - - -
1788357251 12.78° C 91% 1008.8 hPa 0 mm - - -
1788356889 12.78° C 91% 1008.9 hPa 0 mm - - -
1788356352 12.22° C 91% 1008.9 hPa 0 mm - - -
1788355989 12.78° C 91% 1009 hPa 0 mm - - -
1788355451 12.78° C 91% 1009 hPa 0 mm - - -
1788355089 12.22° C 91% 1009.1 hPa 0 mm - - -
1788354550 12.78° C 91% 1009.1 hPa 0 mm - - -
1788354189 12.78° C 91% 1009.2 hPa 0 mm - - -
1788353651 12.78° C 92% 1009.1 hPa 0 mm - - -
1788353289 12.78° C 92% 1009.3 hPa 0 mm - - -
1788352751 12.78° C 92% 1009.4 hPa 0 mm - - -
1788352389 12.78° C 92% 1009.5 hPa 0 mm - - -
1788351850 12.78° C 92% 1009.5 hPa 0 mm - - -
1788351489 12.78° C 92% 1009.6 hPa 0 mm - - -

* Rain latest hour (hover to see other rain measurements)
** Current wind speed in m/s (hover to see current wind gust speed)